Canton, GA

8:55 PM EDT on April 28, 2017 (GMT -0400)
Canton

Weather History for KCNI - June, 2013

Change the Weather History Date:

Wednesday, June 26, 2013

  Actual Average (KMGE) Record (KMGE)
Temperature  
Mean Temperature 77 °F -  
Max Temperature 86 °F 83 °F 92 °F (2015)
Min Temperature 68 °F 67 °F 66 °F (2005)
Cooling Degree Days 12    
Growing Degree Days 27 (Base 50)    
Moisture  
Dew Point 66 °F    
Average Humidity 72    
Maximum Humidity 94    
Minimum Humidity 45    
Precipitation  
Precipitation 0.00 in - - ()
Sea Level Pressure  
Sea Level Pressure 30.06 in    
Wind  
Wind Speed 1 mph (SW)    
Max Wind Speed 7 mph    
Max Gust Speed -    
Visibility 7 miles    
Events Fog    
Averages and records for this station are not official NWS values.
T = Trace of Precipitation, MM = Missing Value Source: NWS Daily Summary

Daily Weather History Graph

Daily Weather History Graph

Search for Another Location

Airport or City:

Trip Planner

Search our weather history database for the weather conditions in past years. The results will help you decide how hot, cold, wet, or windy it might be!

Date:

Astronomy

Jun. 26, 2013 Rise Set
Actual Time 6:27 AM EDT 8:53 PM EDT
Civil Twilight 5:58 AM EDT 9:23 PM EDT
Nautical Twilight 5:21 AM EDT 9:59 PM EDT
Astronomical Twilight 4:42 AM EDT 10:38 PM EDT
Moon 11:28 PM EDT (6/26) 10:08 AM EDT (6/26)
Length of Visible Light 15h 24m
Length of Day
14h 26m
Waning Gibbous, 85% of the Moon is Illuminated
Jun 26
Waning Gibbous
Jun 30
Last Quarter
Jul 8
New
Jul 15
First Quarter
Jul 22
Full

Hourly Weather History & Observations

Time (EDT) Temp. Heat Index Dew Point Humidity Pressure Visibility Wind Dir Wind Speed Gust Speed Precip Events Conditions
12:15 AM 71.6 °F - 68.0 °F 88% 30.10 in 5.0 mi Calm Calm - N/A   Clear
12:35 AM 71.6 °F - 69.8 °F 94% 30.09 in 5.0 mi Calm Calm - N/A   Clear
12:55 AM 71.6 °F - 68.0 °F 88% 30.09 in 5.0 mi Calm Calm - N/A   Clear
1:15 AM 71.6 °F - 68.0 °F 88% 30.09 in 5.0 mi Calm Calm - N/A   Clear
1:35 AM 71.6 °F - 68.0 °F 88% 30.08 in 4.0 mi Calm Calm - N/A   Clear
1:55 AM 71.6 °F - 68.0 °F 88% 30.08 in 2.5 mi ESE 3.5 mph - N/A   Scattered Clouds
2:15 AM 69.8 °F - 68.0 °F 94% 30.08 in 0.8 mi Calm Calm - N/A   Mostly Cloudy
2:35 AM 69.8 °F - 66.2 °F 88% 30.07 in 1.5 mi Calm Calm - N/A   Mist
2:55 AM 69.8 °F - 66.2 °F 88% 30.07 in 1.8 mi Calm Calm - N/A   Mist
3:15 AM 69.8 °F - 68.0 °F 94% 30.07 in 2.0 mi Calm Calm - N/A   Clear
3:35 AM 69.8 °F - 68.0 °F 94% 30.06 in 0.5 mi Calm Calm - N/A Fog Fog
3:55 AM 69.8 °F - 66.2 °F 88% 30.06 in 0.5 mi Calm Calm - N/A Fog Fog
4:15 AM 68.0 °F - 64.4 °F 88% 30.06 in 0.2 mi Calm Calm - N/A Fog Fog
4:35 AM 68.0 °F - 64.4 °F 88% 30.06 in 1.5 mi Calm Calm - N/A   Scattered Clouds
4:55 AM 68.0 °F - 66.2 °F 94% 30.06 in 1.5 mi Calm Calm - N/A   Mist
5:15 AM 68.0 °F - 64.4 °F 88% 30.07 in 1.0 mi Calm Calm - N/A   Mist
5:35 AM 68.0 °F - 66.2 °F 94% 30.08 in 2.5 mi Calm Calm - N/A   Scattered Clouds
5:55 AM 68.0 °F - 66.2 °F 94% 30.09 in 2.0 mi Calm Calm - N/A   Overcast
6:15 AM 68.0 °F - 64.4 °F 88% 30.09 in 2.5 mi Calm Calm - N/A   Scattered Clouds
6:35 AM 68.0 °F - 64.4 °F 88% 30.09 in 3.0 mi Calm Calm - N/A   Scattered Clouds
6:55 AM 68.0 °F - 66.2 °F 94% 30.09 in 2.5 mi Calm Calm - N/A   Overcast
7:15 AM 69.8 °F - 68.0 °F 94% 30.11 in 2.5 mi Calm Calm - N/A   Scattered Clouds
7:35 AM 69.8 °F - 68.0 °F 94% 30.11 in 1.5 mi Calm Calm - N/A   Mostly Cloudy
7:55 AM 69.8 °F - 68.0 °F 94% 30.11 in 5.0 mi South 3.5 mph - N/A   Clear
8:15 AM 69.8 °F - 68.0 °F 94% 30.12 in 3.0 mi Calm Calm - N/A   Scattered Clouds
8:35 AM 71.6 °F - 69.8 °F 94% 30.12 in 5.0 mi Calm Calm - N/A   Clear
8:55 AM 73.4 °F - 71.6 °F 94% 30.12 in 7.0 mi Calm Calm - N/A   Clear
9:15 AM 73.4 °F - 71.6 °F 94% 30.13 in 7.0 mi SSE 3.5 mph - N/A   Scattered Clouds
9:35 AM 75.2 °F - 71.6 °F 89% 30.13 in 10.0 mi SSE 3.5 mph - N/A   Scattered Clouds
9:55 AM 77.0 °F - 69.8 °F 78% 30.13 in 10.0 mi Calm Calm - N/A   Mostly Cloudy
10:15 AM 78.8 °F - 68.0 °F 69% 30.12 in 10.0 mi Calm Calm - N/A   Scattered Clouds
10:55 AM 78.8 °F - 68.0 °F 69% 30.11 in 10.0 mi Calm Calm - N/A   Scattered Clouds
11:15 AM 82.4 °F 85.4 °F 68.0 °F 62% 30.11 in 10.0 mi SW 6.9 mph - N/A   Scattered Clouds
11:35 AM 82.4 °F 84.6 °F 66.2 °F 58% 30.09 in 10.0 mi West 6.9 mph - N/A   Scattered Clouds
11:55 AM 82.4 °F 83.9 °F 64.4 °F 54% 30.09 in 10.0 mi West 3.5 mph - N/A   Mostly Cloudy
12:15 PM 82.4 °F 84.6 °F 66.2 °F 58% 30.09 in 10.0 mi WNW 3.5 mph - N/A   Mostly Cloudy
12:35 PM 84.2 °F 85.6 °F 64.4 °F 51% 30.09 in 10.0 mi West 3.5 mph - N/A   Scattered Clouds
12:55 PM 82.4 °F 84.6 °F 66.2 °F 58% 30.09 in 10.0 mi WNW 3.5 mph - N/A   Scattered Clouds
1:15 PM 84.2 °F 85.6 °F 64.4 °F 51% 30.09 in 10.0 mi WSW 5.8 mph - N/A   Clear
1:35 PM 86.0 °F 87.3 °F 64.4 °F 48% 30.08 in 10.0 mi West 5.8 mph - N/A   Clear
1:55 PM 86.0 °F 87.3 °F 64.4 °F 48% 30.07 in 10.0 mi West 4.6 mph - N/A   Scattered Clouds
2:15 PM 86.0 °F 86.6 °F 62.6 °F 45% 30.06 in 10.0 mi West 5.8 mph - N/A   Scattered Clouds
2:35 PM 86.0 °F 86.6 °F 62.6 °F 45% 30.06 in 10.0 mi WSW 5.8 mph - N/A   Scattered Clouds
2:55 PM 86.0 °F 86.6 °F 62.6 °F 45% 30.05 in 10.0 mi West 4.6 mph - N/A   Clear
3:15 PM 82.4 °F 83.9 °F 64.4 °F 54% 30.04 in 10.0 mi Calm Calm - N/A   Scattered Clouds
3:35 PM 80.6 °F 82.7 °F 66.2 °F 61% 30.03 in 10.0 mi Calm Calm - N/A   Scattered Clouds
3:55 PM 80.6 °F 83.2 °F 68.0 °F 65% 30.04 in 10.0 mi WNW 3.5 mph - N/A   Clear
4:15 PM 80.6 °F 83.2 °F 68.0 °F 65% 30.04 in 10.0 mi Calm Calm - N/A   Clear
4:35 PM 80.6 °F 83.2 °F 68.0 °F 65% 30.03 in 10.0 mi Calm Calm - N/A   Clear
4:55 PM 82.4 °F 85.4 °F 68.0 °F 62% 30.02 in 10.0 mi Calm Calm - N/A   Clear
5:15 PM 82.4 °F 84.6 °F 66.2 °F 58% 30.02 in 10.0 mi West 4.6 mph - N/A   Clear
5:35 PM 82.4 °F 84.6 °F 66.2 °F 58% 30.01 in 10.0 mi Calm Calm - N/A   Clear
5:55 PM 82.4 °F 83.4 °F 62.6 °F 51% 30.01 in 10.0 mi Calm Calm - N/A   Clear
6:15 PM 86.0 °F 87.3 °F 64.4 °F 48% 30.01 in 10.0 mi Calm Calm - N/A   Clear
6:35 PM 84.2 °F 84.4 °F 60.8 °F 45% 30.00 in 10.0 mi SW 5.8 mph - N/A   Clear
6:55 PM 84.2 °F 85.0 °F 62.6 °F 48% 30.00 in 10.0 mi SW 4.6 mph - N/A   Clear
7:15 PM 82.4 °F 83.4 °F 62.6 °F 51% 29.99 in 10.0 mi SW 4.6 mph - N/A   Clear
7:35 PM 82.4 °F 83.9 °F 64.4 °F 54% 29.99 in 10.0 mi SW 3.5 mph - N/A   Clear
7:55 PM 82.4 °F 83.9 °F 64.4 °F 54% 29.99 in 10.0 mi SW 4.6 mph - N/A   Clear
8:15 PM 80.6 °F 82.3 °F 64.4 °F 58% 29.99 in 10.0 mi Calm Calm - N/A   Clear
8:35 PM 80.6 °F 82.3 °F 64.4 °F 58% 29.99 in 10.0 mi SW 3.5 mph - N/A   Clear
8:55 PM 80.6 °F 82.3 °F 64.4 °F 58% 29.99 in 10.0 mi SW 3.5 mph - N/A   Clear
9:15 PM 80.6 °F 82.3 °F 64.4 °F 58% 29.99 in 10.0 mi SSW 4.6 mph - N/A   Clear
9:35 PM 78.8 °F - 66.2 °F 65% 29.99 in 10.0 mi Calm Calm - N/A   Clear
9:55 PM 78.8 °F - 66.2 °F 65% 29.99 in 10.0 mi SW 3.5 mph - N/A   Clear
10:15 PM 78.8 °F - 66.2 °F 65% 29.99 in 10.0 mi SSW 4.6 mph - N/A   Clear
10:35 PM 78.8 °F - 66.2 °F 65% 30.00 in 10.0 mi Calm Calm - N/A   Clear
10:55 PM 78.8 °F - 66.2 °F 65% 29.99 in 10.0 mi Calm Calm - N/A   Clear
11:15 PM 77.0 °F - 68.0 °F 74% 30.00 in 10.0 mi SSW 4.6 mph - N/A   Clear
11:35 PM 77.0 °F - 66.2 °F 69% 30.00 in 10.0 mi Calm Calm - N/A   Clear
11:55 PM 73.4 °F - 68.0 °F 83% 30.01 in 10.0 mi Calm Calm - N/A   Clear